TimeMST,TemperatureF,Dew PointF,Humidity,Sea Level PressureIn,VisibilityMPH,Wind Direction,Wind SpeedMPH,Gust SpeedMPH,PrecipitationIn,Events,Conditions,WindDirDegrees,DateUTC
12:15 AM,86.0,55.4,35,29.92,10.0,Calm,Calm,-,N/A,,Clear,0,2013-08-22 07:15:00
12:35 AM,87.8,55.4,33,29.91,10.0,ESE,4.6,-,N/A,,Mostly Cloudy,110,2013-08-22 07:35:00
12:55 AM,86.0,57.2,37,29.91,10.0,SE,3.5,-,N/A,,Scattered Clouds,140,2013-08-22 07:55:00
1:15 AM,84.2,57.2,40,29.90,10.0,Calm,Calm,-,N/A,,Clear,0,2013-08-22 08:15:00
1:35 AM,82.4,55.4,39,29.90,10.0,Calm,Calm,-,N/A,,Clear,0,2013-08-22 08:35:00
1:55 AM,82.4,55.4,39,29.90,10.0,NNE,4.6,-,N/A,,Clear,30,2013-08-22 08:55:00
2:15 AM,80.6,55.4,42,29.90,10.0,Calm,Calm,-,N/A,,Clear,0,2013-08-22 09:15:00
2:35 AM,82.4,55.4,39,29.90,10.0,Calm,Calm,-,N/A,,Clear,0,2013-08-22 09:35:00
2:55 AM,82.4,55.4,39,29.90,10.0,Calm,Calm,-,N/A,,Clear,0,2013-08-22 09:55:00
3:15 AM,82.4,55.4,39,29.91,10.0,Calm,Calm,-,N/A,,Clear,0,2013-08-22 10:15:00
3:35 AM,82.4,57.2,42,29.90,10.0,Calm,Calm,-,N/A,,Clear,0,2013-08-22 10:35:00
3:55 AM,82.4,57.2,42,29.90,10.0,Calm,Calm,-,N/A,,Clear,0,2013-08-22 10:55:00
4:15 AM,82.4,57.2,42,29.90,10.0,NW,3.5,-,N/A,,Clear,320,2013-08-22 11:15:00
4:35 AM,82.4,57.2,42,29.90,10.0,Calm,Calm,-,N/A,,Clear,0,2013-08-22 11:35:00
4:55 AM,82.4,57.2,42,29.90,10.0,Calm,Calm,-,N/A,,Clear,0,2013-08-22 11:55:00
5:15 AM,82.4,55.4,39,29.91,10.0,Calm,Calm,-,N/A,,Clear,0,2013-08-22 12:15:00
5:35 AM,82.4,57.2,42,29.90,10.0,Calm,Calm,-,N/A,,Clear,0,2013-08-22 12:35:00
5:55 AM,82.4,57.2,42,29.91,10.0,Calm,Calm,-,N/A,,Clear,0,2013-08-22 12:55:00
6:15 AM,82.4,57.2,42,29.91,10.0,Calm,Calm,-,N/A,,Clear,0,2013-08-22 13:15:00
6:35 AM,84.2,57.2,40,29.92,10.0,Calm,Calm,-,N/A,,Clear,0,2013-08-22 13:35:00
6:55 AM,84.2,60.8,45,29.92,10.0,Calm,Calm,-,N/A,,Clear,0,2013-08-22 13:55:00
7:15 AM,86.0,60.8,43,29.93,10.0,SSE,3.5,-,N/A,,Clear,150,2013-08-22 14:15:00
7:35 AM,87.8,60.8,40,29.94,10.0,Calm,Calm,-,N/A,,Clear,0,2013-08-22 14:35:00
7:55 AM,86.0,60.8,43,29.94,10.0,SE,5.8,-,N/A,,Clear,130,2013-08-22 14:55:00
8:15 AM,86.0,60.8,43,29.95,10.0,East,6.9,-,N/A,,Clear,100,2013-08-22 15:15:00
8:35 AM,87.8,60.8,40,29.95,10.0,ESE,8.1,-,N/A,,Clear,110,2013-08-22 15:35:00
8:55 AM,87.8,60.8,40,29.95,10.0,SE,4.6,-,N/A,,Clear,140,2013-08-22 15:55:00
9:15 AM,89.6,60.8,38,29.95,10.0,SSE,5.8,-,N/A,,Clear,150,2013-08-22 16:15:00
9:35 AM,89.6,62.6,40,29.96,10.0,SE,4.6,-,N/A,,Clear,140,2013-08-22 16:35:00
9:55 AM,91.4,60.8,36,29.96,10.0,South,4.6,-,N/A,,Clear,180,2013-08-22 16:55:00
10:15 AM,93.2,60.8,34,29.96,10.0,SSE,4.6,-,N/A,,Clear,160,2013-08-22 17:15:00
10:35 AM,93.2,60.8,34,29.96,10.0,Calm,Calm,-,N/A,,Clear,0,2013-08-22 17:35:00
10:55 AM,96.8,59.0,28,29.95,10.0,SSW,5.8,-,N/A,,Clear,210,2013-08-22 17:55:00
11:15 AM,96.8,57.2,27,29.95,10.0,WSW,5.8,-,N/A,,Clear,240,2013-08-22 18:15:00
11:35 AM,96.8,57.2,27,29.94,10.0,SE,3.5,-,N/A,,Clear,130,2013-08-22 18:35:00
11:55 AM,98.6,57.2,25,29.93,10.0,SSW,6.9,-,N/A,,Clear,210,2013-08-22 18:55:00
12:15 PM,98.6,57.2,25,29.93,10.0,South,4.6,-,N/A,,Clear,180,2013-08-22 19:15:00
12:35 PM,98.6,57.2,25,29.92,10.0,West,6.9,-,N/A,,Clear,270,2013-08-22 19:35:00
12:55 PM,100.4,57.2,24,29.91,10.0,SSW,4.6,-,N/A,,Clear,200,2013-08-22 19:55:00
1:15 PM,98.6,57.2,25,29.89,10.0,NW,9.2,16.1,N/A,,Clear,310,2013-08-22 20:15:00
1:35 PM,100.4,55.4,22,29.88,10.0,WSW,8.1,-,N/A,,Clear,250,2013-08-22 20:35:00
1:55 PM,100.4,57.2,24,29.87,10.0,West,6.9,-,N/A,,Clear,270,2013-08-22 20:55:00
2:15 PM,100.4,55.4,22,29.86,10.0,NW,5.8,17.3,N/A,,Clear,320,2013-08-22 21:15:00
2:35 PM,100.4,55.4,22,29.85,10.0,WSW,6.9,-,N/A,,Clear,240,2013-08-22 21:35:00
2:55 PM,102.2,55.4,21,29.83,10.0,NNW,5.8,-,N/A,,Clear,330,2013-08-22 21:55:00
3:15 PM,100.4,55.4,22,29.82,10.0,NNW,9.2,-,N/A,,Clear,330,2013-08-22 22:15:00
3:35 PM,100.4,55.4,22,29.80,10.0,NNW,6.9,-,N/A,,Clear,330,2013-08-22 22:35:00
3:55 PM,100.4,55.4,22,29.80,10.0,West,10.4,-,N/A,,Clear,260,2013-08-22 22:55:00
4:15 PM,100.4,55.4,22,29.80,10.0,West,13.8,17.3,N/A,,Clear,260,2013-08-22 23:15:00
4:35 PM,100.4,55.4,22,29.80,10.0,West,15.0,-,N/A,,Clear,270,2013-08-22 23:35:00
4:55 PM,98.6,55.4,24,29.81,10.0,West,13.8,-,N/A,,Clear,280,2013-08-22 23:55:00
5:15 PM,98.6,53.6,22,29.82,10.0,West,15.0,-,N/A,,Clear,260,2013-08-23 00:15:00
5:35 PM,98.6,53.6,22,29.82,10.0,WSW,12.7,-,N/A,,Clear,250,2013-08-23 00:35:00
5:55 PM,96.8,53.6,23,29.82,10.0,West,12.7,-,N/A,,Clear,270,2013-08-23 00:55:00
6:15 PM,96.8,53.6,23,29.84,10.0,West,9.2,-,N/A,,Clear,260,2013-08-23 01:15:00
6:35 PM,96.8,53.6,23,29.84,10.0,West,10.4,-,N/A,,Clear,260,2013-08-23 01:35:00
6:55 PM,96.8,53.6,23,29.84,10.0,WSW,6.9,-,N/A,,Clear,240,2013-08-23 01:55:00
7:15 PM,96.8,53.6,23,29.85,10.0,SSW,8.1,-,N/A,,Clear,200,2013-08-23 02:15:00
7:35 PM,91.4,59.0,34,29.85,10.0,South,16.1,-,N/A,,Clear,170,2013-08-23 02:35:00
7:55 PM,91.4,57.2,31,29.86,10.0,South,17.3,21.9,N/A,,Clear,190,2013-08-23 02:55:00
8:15 PM,89.6,55.4,31,29.87,8.0,SSW,20.7,33.4,N/A,,Clear,200,2013-08-23 03:15:00
8:35 PM,89.6,57.2,33,29.88,10.0,SSW,13.8,-,N/A,,Clear,210,2013-08-23 03:35:00
8:55 PM,89.6,57.2,33,29.87,10.0,WSW,12.7,-,N/A,,Clear,240,2013-08-23 03:55:00
9:15 PM,89.6,60.8,38,29.88,10.0,WSW,15.0,19.6,N/A,,Clear,240,2013-08-23 04:15:00
9:35 PM,89.6,60.8,38,29.89,10.0,SW,8.1,-,N/A,,Clear,230,2013-08-23 04:35:00
9:55 PM,87.8,60.8,40,29.89,10.0,SW,9.2,-,N/A,,Clear,230,2013-08-23 04:55:00
10:15 PM,87.8,59.0,38,29.89,10.0,SW,11.5,-,N/A,,Clear,230,2013-08-23 05:15:00
10:35 PM,87.8,59.0,38,29.89,10.0,SW,3.5,-,N/A,,Clear,230,2013-08-23 05:35:00
10:55 PM,87.8,59.0,38,29.89,10.0,Calm,Calm,-,N/A,,Clear,0,2013-08-23 05:55:00
11:15 PM,86.0,60.8,43,29.89,10.0,NNW,5.8,-,N/A,,Clear,330,2013-08-23 06:15:00
11:35 PM,84.2,60.8,45,29.89,10.0,North,4.6,-,N/A,,Clear,350,2013-08-23 06:35:00
11:55 PM,84.2,60.8,45,29.89,10.0,Calm,Calm,-,N/A,,Clear,0,2013-08-23 06:55:00